Hourly Weather Aba

Today, 29 October, Thursday

Time Temperature Precipitation Wind Pressure Humidity
00:00 +27°C° 0 mm 1 mps 752 mmHg 91%
01:00 +26°C° 0.2 mm 1 mps 752 mmHg 91%
02:00 +26°C° 0.2 mm 1 mps 752 mmHg 91%
03:00 +26°C° 0.2 mm 1 mps 751 mmHg 91%
04:00 +26°C° 0 mm 1 mps 752 mmHg 91%
05:00 +26°C° 0 mm 1 mps 752 mmHg 91%
06:00 +26°C° 0 mm 1 mps 753 mmHg 92%
07:00 +27°C° 0 mm 1 mps 753 mmHg 86%
08:00 +28°C° 0 mm 1 mps 753 mmHg 81%
09:00 +30°C° 0 mm 1 mps 754 mmHg 76%
10:00 +31°C° 0.1 mm 1 mps 753 mmHg 71%
11:00 +32°C° 0.1 mm 1 mps 752 mmHg 67%
12:00 +33°C° 0 mm 1 mps 752 mmHg 63%
13:00 +32°C° 1.8 mm 2 mps 751 mmHg 66%
14:00 +32°C° 1.8 mm 2 mps 751 mmHg 69%
15:00 +31°C° 1.8 mm 2 mps 751 mmHg 73%
16:00 +30°C° 3 mm 2 mps 751 mmHg 79%
17:00 +28°C° 3 mm 2 mps 752 mmHg 85%
18:00 +27°C° 3 mm 3 mps 752 mmHg 91%
19:00 +27°C° 0.5 mm 2 mps 753 mmHg 92%
20:00 +26°C° 0.5 mm 2 mps 753 mmHg 93%
21:00 +26°C° 0.5 mm 1 mps 754 mmHg 93%
22:00 +26°C° 0 mm 1 mps 753 mmHg 93%
23:00 +26°C° 0 mm 1 mps 753 mmHg 93%

Tomorrow, 30 October, Friday

Time Temperature Precipitation Wind Pressure Humidity
00:00 +26°C° 0 mm 1 mps 753 mmHg 93%
01:00 +26°C° 0 mm 1 mps 752 mmHg 93%
02:00 +26°C° 0 mm 1 mps 752 mmHg 93%
03:00 +26°C° 0 mm 1 mps 752 mmHg 93%
04:00 +26°C° 0 mm 1 mps 752 mmHg 93%
05:00 +26°C° 0 mm 1 mps 753 mmHg 92%
06:00 +24°C° 0 mm 0 mps 753 mmHg 92%
07:00 +28°C° 0 mm 1 mps 753 mmHg 86%
08:00 +29°C° 0 mm 1 mps 753 mmHg 80%
09:00 +30°C° 0 mm 1 mps 754 mmHg 74%
10:00 +31°C° 0 mm 1 mps 753 mmHg 70%
11:00 +32°C° 0 mm 1 mps 752 mmHg 66%
12:00 +33°C° 0 mm 1 mps 752 mmHg 63%
13:00 +32°C° 0.3 mm 2 mps 751 mmHg 64%
14:00 +32°C° 0.3 mm 2 mps 751 mmHg 66%
15:00 +32°C° 0.3 mm 2 mps 750 mmHg 68%
16:00 +30°C° 0.3 mm 2 mps 751 mmHg 74%
17:00 +29°C° 0.3 mm 2 mps 751 mmHg 79%
18:00 +27°C° 0.3 mm 2 mps 751 mmHg 85%
19:00 +27°C° 0 mm 2 mps 752 mmHg 86%
20:00 +27°C° 0 mm 2 mps 753 mmHg 88%
21:00 +26°C° 0 mm 2 mps 753 mmHg 89%
22:00 +26°C° 0.3 mm 2 mps 753 mmHg 90%
23:00 +26°C° 0.3 mm 1 mps 753 mmHg 91%

Day after tomorrow, 31 October, Saturday

Time Temperature Precipitation Wind Pressure Humidity
00:00 +26°C° 0.3 mm 1 mps 752 mmHg 92%
01:00 +26°C° 0.1 mm 1 mps 752 mmHg 92%
02:00 +26°C° 0.1 mm 1 mps 752 mmHg 93%
03:00 +26°C° 0.1 mm 1 mps 752 mmHg 93%
04:00 +26°C° 0 mm 1 mps 752 mmHg 93%
05:00 +26°C° 0 mm 1 mps 752 mmHg 93%
06:00 +24°C° 0 mm 0 mps 753 mmHg 93%
07:00 +28°C° 0 mm 1 mps 753 mmHg 86%
08:00 +30°C° 0 mm 1 mps 753 mmHg 78%
09:00 +31°C° 0 mm 1 mps 753 mmHg 71%
10:00 +31°C° 0.2 mm 1 mps 753 mmHg 70%
11:00 +32°C° 0.2 mm 1 mps 752 mmHg 69%
12:00 +32°C° 0.2 mm 1 mps 751 mmHg 67%
13:00 +31°C° 2.6 mm 1 mps 751 mmHg 71%
14:00 +30°C° 2.6 mm 1 mps 750 mmHg 75%
15:00 +30°C° 2.6 mm 1 mps 750 mmHg 80%
16:00 +29°C° 0.9 mm 2 mps 750 mmHg 83%
17:00 +28°C° 0.9 mm 2 mps 751 mmHg 86%
18:00 +27°C° 0.9 mm 2 mps 751 mmHg 89%
19:00 +27°C° 0 mm 2 mps 752 mmHg 90%
20:00 +26°C° 0 mm 2 mps 752 mmHg 91%
21:00 +26°C° 0 mm 1 mps 753 mmHg 91%
22:00 +26°C° 0 mm 1 mps 753 mmHg 91%
23:00 +26°C° 0 mm 1 mps 752 mmHg 91%

1 November, Sunday

Time Temperature Precipitation Wind Pressure Humidity
00:00 +26°C° 0 mm 1 mps 752 mmHg 91%
01:00 +26°C° 0 mm 1 mps 752 mmHg 91%
02:00 +26°C° 0 mm 1 mps 752 mmHg 92%
03:00 +26°C° 0 mm 1 mps 751 mmHg 92%
04:00 +24°C° 0 mm 0 mps 752 mmHg 92%
05:00 +24°C° 0 mm 0 mps 752 mmHg 91%
06:00 +24°C° 0 mm 0 mps 753 mmHg 91%
07:00 +27°C° 0.2 mm 1 mps 753 mmHg 86%
08:00 +29°C° 0.2 mm 1 mps 753 mmHg 81%
09:00 +30°C° 0.2 mm 1 mps 753 mmHg 75%
10:00 +31°C° 0.3 mm 1 mps 752 mmHg 71%
11:00 +32°C° 0.3 mm 2 mps 752 mmHg 68%
12:00 +32°C° 0.3 mm 2 mps 751 mmHg 64%
13:00 +32°C° 0.8 mm 2 mps 751 mmHg 67%
14:00 +32°C° 0.8 mm 2 mps 750 mmHg 70%
15:00 +31°C° 0.8 mm 3 mps 750 mmHg 72%
16:00 +30°C° 1.4 mm 3 mps 750 mmHg 78%
17:00 +28°C° 1.4 mm 2 mps 751 mmHg 83%
18:00 +27°C° 1.4 mm 2 mps 751 mmHg 89%
19:00 +27°C° 0.3 mm 2 mps 752 mmHg 90%
20:00 +26°C° 0.3 mm 2 mps 752 mmHg 91%
21:00 +26°C° 0.3 mm 1 mps 753 mmHg 93%
22:00 +26°C° 1.5 mm 1 mps 753 mmHg 92%
23:00 +26°C° 1.5 mm 1 mps 752 mmHg 92%

2 November, Monday

Time Temperature Precipitation Wind Pressure Humidity
00:00 +26°C° 1.5 mm 1 mps 752 mmHg 91%
01:00 +26°C° 0.1 mm 1 mps 752 mmHg 91%
02:00 +26°C° 0.1 mm 1 mps 752 mmHg 92%
03:00 +26°C° 0.1 mm 1 mps 752 mmHg 92%
04:00 +26°C° 0 mm 1 mps 752 mmHg 92%
05:00 +26°C° 0 mm 1 mps 752 mmHg 92%
06:00 +26°C° 0 mm 1 mps 753 mmHg 92%
07:00 +27°C° 0 mm 1 mps 753 mmHg 87%
08:00 +28°C° 0 mm 2 mps 754 mmHg 81%
09:00 +29°C° 0 mm 2 mps 754 mmHg 76%
10:00 +29°C° 0 mm 2 mps 753 mmHg 75%
11:00 +29°C° 0 mm 1 mps 752 mmHg 74%
12:00 +29°C° 0 mm 1 mps 752 mmHg 73%
13:00 +29°C° 0 mm 1 mps 751 mmHg 72%
14:00 +27°C° 0 mm 0 mps 751 mmHg 71%
15:00 +27°C° 0 mm 0 mps 750 mmHg 70%
16:00 +29°C° 0 mm 1 mps 751 mmHg 74%
17:00 +28°C° 0 mm 1 mps 751 mmHg 78%
18:00 +27°C° 0 mm 1 mps 752 mmHg 82%
19:00 +26°C° 0 mm 1 mps 752 mmHg 83%
20:00 +26°C° 0 mm 1 mps 753 mmHg 84%
21:00 +26°C° 0 mm 1 mps 753 mmHg 86%
22:00 +26°C° 0 mm 1 mps 753 mmHg 87%
23:00 +25°C° 0 mm 1 mps 753 mmHg 89%

3 November, Tuesday

Time Temperature Precipitation Wind Pressure Humidity
00:00 +25°C° 0 mm 1 mps 752 mmHg 90%
01:00 +25°C° 0 mm 1 mps 752 mmHg 91%
02:00 +25°C° 0 mm 1 mps 752 mmHg 92%
03:00 +25°C° 0 mm 1 mps 751 mmHg 94%
04:00 +25°C° 0 mm 1 mps 752 mmHg 92%
05:00 +23°C° 0 mm 0 mps 752 mmHg 91%
06:00 +24°C° 0 mm 0 mps 752 mmHg 90%
07:00 +25°C° 0 mm 0 mps 753 mmHg 86%
08:00 +26°C° 0 mm 0 mps 753 mmHg 82%
09:00 +27°C° 0 mm 0 mps 754 mmHg 78%
10:00 +29°C° 0.3 mm 0 mps 753 mmHg 71%
11:00 +30°C° 0.3 mm 0 mps 753 mmHg 65%
12:00 +32°C° 0.3 mm 0 mps 752 mmHg 59%
13:00 +33°C° 1.6 mm 1 mps 751 mmHg 62%
14:00 +32°C° 1.6 mm 1 mps 751 mmHg 65%
15:00 +32°C° 1.6 mm 1 mps 751 mmHg 68%
16:00 +30°C° 2.7 mm 1 mps 751 mmHg 74%
17:00 +29°C° 2.7 mm 2 mps 752 mmHg 81%
18:00 +27°C° 2.7 mm 2 mps 752 mmHg 88%
19:00 +27°C° 0.8 mm 2 mps 753 mmHg 88%
20:00 +27°C° 0.8 mm 2 mps 753 mmHg 89%
21:00 +27°C° 0.8 mm 2 mps 754 mmHg 89%
22:00 +26°C° 0 mm 1 mps 753 mmHg 90%
23:00 +26°C° 0 mm 1 mps 753 mmHg 91%
Show more